Back to catalog

STARLINK-2524

AliveCommunicationsVLEO
NORAD 48304·PAYLOAD·🇺🇸 United States

Launched Apr 29, 2021 from Cape Canaveral Space Force Station

Loading…

Next Passes (next 24 hours)

TLE

FreshSource: CelesTrak SupGP

Epoch: Sep 14, 2026, 22:02 UTC

1 48304C 21036AE  26257.91854167  .00032776  00000+0  10540-2 0  2577
2 48304  53.1586 298.2768 0001081  89.5062 285.2647 15.31686985    18

Track STARLINK-2524 in real time with AllMySat

Download on the App Store